TimeEST,TemperatureF,Dew PointF,Humidity,Sea Level PressureIn,VisibilityMPH,Wind Direction,Wind SpeedMPH,Gust SpeedMPH,PrecipitationIn,Events,Conditions,WindDirDegrees,DateUTC
12:53 AM,48.9,41.0,74,30.04,-9999.0,South,4.6,-,0.00,Rain,Light Rain,170,2012-12-07 05:53:00
1:46 AM,48.2,42.8,82,30.03,-9999.0,South,5.8,-,0.01,,Overcast,170,2012-12-07 06:46:00
1:53 AM,48.9,42.1,77,30.03,-9999.0,SSE,5.8,-,0.01,,Overcast,160,2012-12-07 06:53:00
2:53 AM,50.0,44.1,80,30.03,-9999.0,SSE,8.1,-,0.00,Rain,Light Rain,160,2012-12-07 07:53:00
3:53 AM,50.0,46.9,89,30.01,-9999.0,South,6.9,-,0.02,Rain,Light Rain,170,2012-12-07 08:53:00
4:53 AM,50.0,46.9,89,30.01,-9999.0,South,4.6,-,0.01,,Overcast,190,2012-12-07 09:53:00
5:06 AM,50.0,46.4,87,30.01,-9999.0,South,4.6,-,N/A,,Overcast,190,2012-12-07 10:06:00
5:53 AM,51.1,48.0,89,30.02,-9999.0,SSW,4.6,-,0.05,Rain,Rain,200,2012-12-07 10:53:00
6:53 AM,51.1,48.9,92,30.04,6.0,SSW,5.8,-,0.13,Rain,Light Rain,210,2012-12-07 11:53:00
7:44 AM,51.8,48.2,88,30.03,6.0,SSW,8.1,-,0.00,Rain,Light Rain,200,2012-12-07 12:44:00
7:53 AM,51.1,48.9,92,30.04,6.0,SSW,8.1,-,0.00,Rain,Light Rain,200,2012-12-07 12:53:00
8:16 AM,51.8,48.2,88,30.03,6.0,SSW,8.1,-,0.01,Rain,Light Rain,210,2012-12-07 13:16:00
8:23 AM,51.8,48.2,88,30.03,6.0,SSW,6.9,-,0.01,Rain,Light Rain,210,2012-12-07 13:23:00
8:53 AM,51.1,50.0,96,30.05,6.0,SSW,6.9,-,0.01,,Overcast,210,2012-12-07 13:53:00
9:53 AM,52.0,50.0,93,30.04,5.0,South,5.8,-,0.01,Rain,Light Rain,170,2012-12-07 14:53:00
10:14 AM,51.8,50.0,94,30.04,5.0,South,3.5,-,0.00,,Overcast,170,2012-12-07 15:14:00
10:53 AM,52.0,50.0,93,30.05,5.0,South,4.6,-,0.00,Rain,Light Rain,190,2012-12-07 15:53:00
11:50 AM,53.6,51.8,94,30.02,5.0,SSW,5.8,-,0.02,Rain,Light Rain,200,2012-12-07 16:50:00
11:53 AM,53.1,51.1,93,30.03,5.0,SSW,5.8,-,0.03,Rain,Light Rain,200,2012-12-07 16:53:00
12:23 PM,53.6,51.8,94,30.00,5.0,Variable,4.6,-,0.01,Rain,Light Rain,0,2012-12-07 17:23:00
12:53 PM,53.1,51.1,93,30.00,9.0,SSW,5.8,-,0.01,Rain,Light Rain,200,2012-12-07 17:53:00
1:53 PM,53.1,51.1,93,29.98,5.0,South,4.6,-,0.02,Rain,Light Rain,190,2012-12-07 18:53:00
2:53 PM,53.1,51.1,93,29.96,5.0,SSE,3.5,-,0.02,Rain,Light Rain,160,2012-12-07 19:53:00
3:10 PM,53.6,51.8,94,29.96,5.0,South,3.5,-,0.00,Rain,Light Rain,190,2012-12-07 20:10:00
3:20 PM,53.6,51.8,94,29.96,3.0,South,3.5,-,0.01,Rain,Light Rain,180,2012-12-07 20:20:00
3:27 PM,53.6,51.8,94,29.96,3.0,SSE,3.5,-,0.02,Rain,Light Rain,160,2012-12-07 20:27:00
3:34 PM,53.6,51.8,94,29.96,4.0,Calm,Calm,-,0.02,Rain,Light Rain,0,2012-12-07 20:34:00
3:53 PM,53.1,51.1,93,29.96,3.0,Calm,Calm,-,0.03,Rain,Light Rain,0,2012-12-07 20:53:00
3:57 PM,53.6,51.8,94,29.96,3.0,Calm,Calm,-,0.01,Rain,Light Rain,0,2012-12-07 20:57:00
4:06 PM,53.6,51.8,94,29.96,3.0,Calm,Calm,-,0.01,Rain,Light Rain,0,2012-12-07 21:06:00
4:41 PM,51.8,51.8,100,29.95,2.5,Calm,Calm,-,0.01,Rain,Light Rain,0,2012-12-07 21:41:00
4:44 PM,51.8,51.8,100,29.95,1.5,Calm,Calm,-,0.01,Rain,Light Rain,0,2012-12-07 21:44:00
4:51 PM,51.8,51.8,100,29.95,0.8,Calm,Calm,-,0.01,Rain,Light Rain,0,2012-12-07 21:51:00
4:53 PM,52.0,51.1,97,29.95,1.0,East,3.5,-,0.01,Rain,Light Rain,100,2012-12-07 21:53:00
4:58 PM,51.8,51.8,100,29.95,2.0,ESE,3.5,-,0.00,Rain,Light Rain,110,2012-12-07 21:58:00
5:04 PM,51.8,51.8,100,29.95,4.0,SE,3.5,-,0.00,Rain,Light Rain,130,2012-12-07 22:04:00
5:53 PM,52.0,51.1,97,29.94,5.0,Calm,Calm,-,0.01,Rain,Light Rain,0,2012-12-07 22:53:00
6:03 PM,51.8,51.8,100,29.94,2.5,Calm,Calm,-,0.01,Rain,Light Rain,0,2012-12-07 23:03:00
6:13 PM,51.8,50.0,94,29.94,1.2,Calm,Calm,-,0.05,Rain,Heavy Rain,0,2012-12-07 23:13:00
6:51 PM,51.8,51.8,100,29.94,1.0,Calm,Calm,-,0.19,Rain,Heavy Rain,0,2012-12-07 23:51:00
6:53 PM,51.1,51.1,100,29.94,1.0,Calm,Calm,-,0.20,Rain,Heavy Rain,0,2012-12-07 23:53:00
7:12 PM,51.8,50.0,94,29.93,1.2,East,3.5,-,0.08,Rain,Rain,100,2012-12-08 00:12:00
7:45 PM,51.8,50.0,94,29.94,0.8,Calm,Calm,-,0.13,Rain,Rain,0,2012-12-08 00:45:00
7:49 PM,51.8,51.8,100,29.94,1.2,Calm,Calm,-,0.13,Rain,Rain,0,2012-12-08 00:49:00
8:01 PM,51.8,51.8,100,29.93,2.0,ESE,3.5,-,0.04,Rain,Heavy Rain,110,2012-12-08 01:01:00
8:08 PM,51.8,50.0,94,29.93,1.8,Calm,Calm,-,0.06,Rain,Rain,0,2012-12-08 01:08:00
8:16 PM,51.8,50.0,94,29.93,2.5,SE,3.5,-,0.07,Rain,Light Rain,140,2012-12-08 01:16:00
8:32 PM,51.8,51.8,100,29.93,3.0,Calm,Calm,-,0.09,Rain,Light Rain,0,2012-12-08 01:32:00
8:40 PM,51.8,51.8,100,29.93,1.8,Calm,Calm,-,0.10,Rain,Light Rain,0,2012-12-08 01:40:00
8:48 PM,51.8,50.0,94,29.92,2.0,Calm,Calm,-,0.11,Rain,Light Rain,0,2012-12-08 01:48:00
8:49 PM,51.1,51.1,100,29.93,2.5,Calm,Calm,-,0.11,Rain,Light Rain,0,2012-12-08 01:49:00
9:00 PM,51.8,51.8,100,29.92,4.0,Calm,Calm,-,0.00,Rain,Light Rain,0,2012-12-08 02:00:00
9:19 PM,51.8,50.0,94,29.92,1.8,SE,3.5,-,0.01,Rain,Light Rain,130,2012-12-08 02:19:00
9:49 PM,51.8,51.8,100,29.91,1.0,ESE,3.5,-,0.12,Rain,Rain,120,2012-12-08 02:49:00
9:53 PM,51.1,51.1,100,29.91,1.5,Calm,Calm,-,0.13,Rain,Rain,0,2012-12-08 02:53:00
10:06 PM,51.8,51.8,100,29.91,3.0,SSE,3.5,-,0.02,Rain,Light Rain,160,2012-12-08 03:06:00
10:36 PM,51.8,51.8,100,29.90,4.0,Calm,Calm,-,0.04,Rain,Light Rain,0,2012-12-08 03:36:00
10:48 PM,51.8,51.8,100,29.91,3.0,Calm,Calm,-,0.06,Rain,Rain,0,2012-12-08 03:48:00
10:53 PM,52.0,51.1,97,29.90,3.0,Calm,Calm,-,0.06,Rain,Light Rain,0,2012-12-08 03:53:00
10:55 PM,51.8,50.0,94,29.90,1.8,ESE,3.5,-,0.01,Rain,Light Rain,110,2012-12-08 03:55:00
11:06 PM,51.8,51.8,100,29.90,0.8,Calm,Calm,-,0.01,Rain,Light Rain,0,2012-12-08 04:06:00
11:18 PM,51.8,51.8,100,29.90,1.0,Calm,Calm,-,0.01,Rain,Light Rain,0,2012-12-08 04:18:00
11:53 PM,52.0,51.1,97,29.91,2.5,Calm,Calm,-,0.05,Rain,Rain,0,2012-12-08 04:53:00